Location: Nashville
(36.1660°N, 86.7840°W)
Time: 07:55:43
(UTC-05:00)

EO-88 - Pass Details

Date: 17 May 2022
Orbit: 457 x 464 km, 97.3° (Epoch: 27 June)

Event Time Altitude Azimuth Distance (km) Brightness Sun altitude
Exits shadow 21:49:06 26° 50° (NE) 947 ? -20.7°
Drops below altitude 10° 21:51:24 10° 12° (NNE) 1,616 ? -21.0°
Enters shadow 22:48:25 -63° 171° (S) 11,853 ? -28.0°
